CZ-6A DEB, 54437

Orbit data source: Space-Track

CZ-6A DEB, 54437 is space debris in SSO originally from a launch on Fri, 11 Nov 2022 UTC launched from the Taiyaun Space Center, China (TSC). Debris objects in space refer to the collection of defunct objects orbiting the Earth. Examples of debris include non-operational satellites, rocket bodies, and fragments generated from explosions, collisions, or faulty payload assembly.

Loading next visibility...
Identifier
54437, 2022-151FM
Orbit
SSO
Country
Flag of CNCN / PRC
Related business
Manufacturer
SAST
Mission
Spacecraft
Bus & Motor
Unknown
Mass
Unknown
Launch date (UTC)
2022-11-11 (3 years ago)
Launch vehicle
Unknown
Launch site
Taiyaun Space Center, China (TSC)
Object type
Payload
Rocket body
Debris
Shape & HBR
Unknown shape, 0.1 m
Radar Cross Section
Small (<0.1 m²)

Expand to show TLE details & history
Last TLE update: 9 hours ago

TLE from 9 hours ago
0 CZ-6A DEB
1 54437U 22151FM  26130.14271855  .00004644  00000-0  87410-3 0  9990
2 54437  98.6223 191.1839 0090651  49.9005 311.0096 14.62475167184393
Epoch: 2026-05-10T03:25Z
TLE epoch observation values (Epoch: 2026-05-10T03:25:30.882Z)
Latitude
-0.00009°
Longitude
-88.1448°
Altitude
646.478 km
Speed
7.557 km/s
True Right ascension
12h 44m 44s
True Declination
0° 00' 00"
Sunlit
Object was in full shadow at epoch
Visualization orbit readout
Latitude
Unknown
Longitude
Unknown
Altitude
Unknown
Speed
Unknown
Apparent Right ascension
Unknown
Apparent Declination
Unknown
Sunlit
N/A
Visualization observer readout
Local Sidereal Time
20:41:37
Azimuth
Unknown
Elevation
Unknown
Doppler factor
Unknown
Orbital elements
Apogee altitude
746.294 km
Perigee altitude
618.287 km
Semi-major axis
7,060.428 km
Eccentricity
0.00907
Inclination
98.6223°
RAAN
191.1839°
Arg. of periapsis
49.9005°
True anomaly
310.21989°
Mean anomaly
311.0096°
Eccentric anomaly
310.61533°
Mean motion
3.65845 °/min
Orbital period
98.4 mins
BSTAR
0.0008741
Loading maneuver chart data...
Computing Atmospheric mass density...
Loading historical data...
Loading historical data...
Loading historical data...
Loading historical data...
Loading historical data...
Loading historical data...
Loading historical data...

Documentation

Showing up to 5 results
|